星链-36316(STARLINK-36316)

导读

STARLINK-36316是美国于2026年2月7日发射的星链卫星,归属SpaceX星链星座系统。星链计划旨在构建全球卫星互联网,为偏远地区等场景提供宽带网络服务,该卫星的发射延续了星链星座组网推进节奏,进一步扩充了低轨卫星星座的卫星规模,助力全球网络覆盖能力提升。

Basic Information
目录编号:
67705
目录名称:
STARLINK-36316
国际标识:
2026-025N
轨道中心:
EARTH
卫星名称:
星链-36316
卫星全名:
星链-36316(STARLINK-36316)
卫星状态:
在轨 (已飞行209 天)
发射日期:
2026-02-07 UTC
国别 :
美国 (US)
星等 :
--
Orbit Information
数据来源 国际轨道数据
星历时间: 2026-09-03T23:59:17+0800
14小时前
查看轨道信息
半长轴: 6843.66km
偏心率: 0.0000908
轨道倾角: 97.284°
近地点辐角 135.776°
升交点赤经 356.769°
平近点角 224.356°
近地点: 464.901km
远地点: 466.145km
周期: 93.906分钟
每日圈数: 15.334519
Detailed Information
固有亮度:
5
最大亮度:
2.5
卫星平台:
Starlink V1.0
覆盖范围:
全球
运营商:
太空探索技术公司
运营商所在国:
美国
制造商(研发单位):
太空探索技术公司
制造商所在国:
美国
使用方式:
暂无
Satellite Introduction
Starlink 计划是 SpaceX 推出的全球卫星互联网项目,通过发射低轨道卫星,为全球尤其是偏远地区提供高速、低延迟的互联网服务。自 2019 年起,Starlink 已部署数千颗卫星,旨在缩小全球数字鸿沟,推动互联网普及。该项目还为军事、航空等行业提供通信支持,带来广泛经济效益。
2D Orbit Map
3D Orbit Map
Orbit Altitude Analysis Chart
Orbit Inclination Analysis Chart
Orbit Comprehensive Analysis Chart
View Comprehensive Chart
Conjunction Data List
Event ID Objects TCA Miss Dist (km) Collision Risk Probability Collision Risk Index (CRI) Action
CDM_260903-101606-534506-770522
2026-09-03T
10:16:18+0000
2.506 km
极远距离
1.553674E-6 低风险 0.39
CDM_260903-171906-370006-770521
2026-09-03T
17:19:28+0000
2.895 km
极远距离
1.290149E-6 低风险 0.37
CDM_260904-073405-298706-770521
2026-09-04T
07:34:22+0000
2.785 km
极远距离
8.852063E-7 极低风险 0.34